[Iaude] MPEC Q97: 2020 QP1 [a=1.98,e=0.49,i=5.4,H=26.1]

mpec at marsden.cfa.harvard.edu mpec at marsden.cfa.harvard.edu
Wed Aug 19 07:58:07 EDT 2020


M.P.E.C. 2020-Q97                               Issued 2020 August 19, 11:56 UT

     The Minor Planet Electronic Circulars contain information on unusual
         minor planets and routine data on comets.  They are published
    on behalf of Division F of the International Astronomical Union by the
          Minor Planet Center, Smithsonian Astrophysical Observatory,
                          Cambridge, MA 02138, U.S.A.

             Prepared using the Tamkin Foundation Computer Network

                              MPC at CFA.HARVARD.EDU
            URL https://www.minorplanetcenter.net/    ISSN 1523-6714

                                    2020 QP1                                    


Observations:
     K20Q01P* C2020 08 18.31075 22 54 28.49 -03 52 06.7          21.4 GVEQ097G96
     K20Q01P  C2020 08 18.31595 22 54 31.22 -03 51 12.0          20.8 GVEQ097G96
     K20Q01P  C2020 08 18.32116 22 54 33.99 -03 50 16.0          20.7 GVEQ097G96
     K20Q01P  C2020 08 18.32635 22 54 36.79 -03 49 20.8          21.0 GVEQ097G96
     K20Q01P  C2020 08 18.42800 22 55 30.92 -03 31 07.8          21.0 GVEQ097I52
     K20Q01P  C2020 08 18.43053 22 55 32.28 -03 30 40.9          21.2 GVEQ097I52
     K20Q01P  C2020 08 18.43557 22 55 35.05 -03 29 45.5          20.8 GVEQ097I52
     K20Q01P  C2020 08 18.98114 23 01 06.98 -01 49 21.6          21.3 VVEQ097033
     K20Q01P  C2020 08 18.98231 23 01 07.63 -01 49 08.4          21.2 VVEQ097033
     K20Q01P  C2020 08 18.98349 23 01 08.31 -01 48 54.9          21.1 VVEQ097033
     K20Q01P  C2020 08 18.98466 23 01 08.99 -01 48 41.5          21.5 VVEQ097033
     K20Q01P  C2020 08 18.98583 23 01 09.68 -01 48 28.2          21.4 VVEQ097033
     K20Q01P  C2020 08 19.44014 23 05 48.97 -00 19 38.9          21.2 GVEQ097I52
     K20Q01P  C2020 08 19.44821 23 05 53.78 -00 18 02.2          20.5 GVEQ097I52
     K20Q01P  C2020 08 19.46967 23 06 06.58 -00 13 46.4          19.5 GVEQ097I52
     K20Q01P  C2020 08 19.47262 23 06 08.35 -00 13 11.2          20.6 GVEQ097I52

Observer details:
033 Karl Schwarzschild Observatory, Tautenburg.  Observers S. Melnikov, F.
    Ludwig, B. Stecklum.  Measurer B. Stecklum.  1.34-m f/3 Schmidt + CCD.
G96 Mt. Lemmon Survey.  Observer H. Groeller.  Measurers E. J. Christensen, G.
    A. Farneth, D. C. Fuls, A. R. Gibbs, A. D. Grauer, H. Groeller, R. A.
    Kowalski, S. M. Larson, G. J. Leonard, T. A. Pruyne, D. Rankin, R. L.
    Seaman, F. C. Shelly, K. W. Wierzchos.  1.5-m reflector + 10K CCD.
I52 Steward Observatory, Mt. Lemmon Station.  Observer T. A. Pruyne.
    Measurers E. J. Christensen, G. A. Farneth, D. C. Fuls, A. R. Gibbs, A. D.
    Grauer, H. Groeller, R. A. Kowalski, S. M. Larson, G. J. Leonard, T. A.
    Pruyne, D. Rankin, R. L. Seaman, F. C. Shelly, K. W. Wierzchos.  1.0-m
    reflector + CCD.

Orbital elements:
2020 QP1                                                 Earth MOID = 0.0334 AU
Epoch 2020 May 31.0 TT = JDT 2459000.5                  Veres
M 320.85704              (2000.0)            P               Q
n   0.35351968     Peri.   37.76294     +0.99747532     -0.04602956
a   1.9808898      Node   324.76015     +0.01553955     +0.88451374
e   0.4928738      Incl.    5.37765     +0.06929294     +0.46423779
P   2.79           H   26.1           G   0.15           U   7
Residuals in seconds of arc
200818 G96  0.0   0.5+    200818 I52  0.5+  0.3+    200819 I52  0.0   0.3-
200818 G96  0.4-  0.2-    200818 033  0.3+  0.0     200819 I52  0.2+  0.2+
200818 G96  0.3-  0.2+    200818 033  0.1-  0.1-    200819 I52  0.2-  0.1+
200818 G96  0.4+  0.1-    200818 033  0.1-  0.1-    200819 I52  0.2-  0.1+
200818 I52  0.1-  0.1-    200818 033  0.0   0.0
200818 I52  0.2-  0.5-    200818 033  0.2+  0.0

Ephemeris:
2020 QP1                 a,e,i = 1.98, 0.49, 5                   q = 1.0046
Date    TT    R. A. (2000) Decl.     Delta      r    Elong.  Phase     V
2020 07 20    21 02 51.4 -30 26 20   0.2185  1.2263   162.5    14.5    24.1
...
2020 08 04    21 34 14.8 -25 22 22   0.1275  1.1396   168.1    10.5    22.6
...
2020 08 12    22 07 43.7 -17 24 34   0.08744 1.0996   170.1     9.2    21.6
...
2020 08 18    22 51 28.8 -04 45 18   0.06367 1.0732   162.7    16.3    21.2
2020 08 19    23 01 16.7 -01 44 01   0.06056 1.0692   160.0    18.9    21.1
2020 08 20    23 11 59.3 +01 35 24   0.05779 1.0652   156.8    22.0    21.1
...
2020 08 26    00 38 43.5 +25 56 02   0.05034 1.0439   130.3    47.6    21.5
...
2020 09 03    03 13 26.1 +47 40 24   0.06578 1.0221    99.9    76.5    22.9
...
2020 09 18    05 56 59.1 +50 38 26   0.1236  1.0044    86.3    86.7    24.6

M. P. C. Staff               (C) Copyright 2020 MPC           M.P.E.C. 2020-Q97




More information about the Iaude mailing list